TimeEST,TemperatureF,Dew PointF,Humidity,Sea Level PressureIn,VisibilityMPH,Wind Direction,Wind SpeedMPH,Gust SpeedMPH,PrecipitationIn,Events,Conditions,WindDirDegrees,DateUTC
1:53 AM,48.0,43.0,83,30.19,10.0,Calm,Calm,-,N/A,,Scattered Clouds,0,2012-12-04 06:53:00
2:53 AM,48.0,43.0,83,30.19,10.0,Calm,Calm,-,N/A,,Partly Cloudy,0,2012-12-04 07:53:00
3:53 AM,50.0,45.0,83,30.18,10.0,Calm,Calm,-,N/A,,Mostly Cloudy,0,2012-12-04 08:53:00
4:53 AM,52.0,46.0,80,30.17,10.0,Calm,Calm,-,N/A,,Overcast,0,2012-12-04 09:53:00
5:53 AM,54.0,48.0,80,30.18,10.0,Calm,Calm,-,N/A,,Overcast,0,2012-12-04 10:53:00
6:53 AM,54.0,48.0,80,30.18,10.0,Calm,Calm,-,N/A,,Overcast,0,2012-12-04 11:53:00
7:53 AM,57.0,48.9,74,30.19,10.0,SSE,3.5,-,N/A,,Overcast,160,2012-12-04 12:53:00
8:53 AM,57.9,51.1,78,30.20,10.0,Calm,Calm,-,0.00,Rain,Light Rain,0,2012-12-04 13:53:00
9:53 AM,61.0,51.1,70,30.20,10.0,South,4.6,-,0.00,,Overcast,170,2012-12-04 14:53:00
10:53 AM,62.1,53.1,72,30.20,10.0,Calm,Calm,-,0.00,Rain,Light Rain,0,2012-12-04 15:53:00
11:53 AM,64.9,52.0,63,30.17,10.0,SSW,11.5,-,0.00,,Overcast,210,2012-12-04 16:53:00
12:53 PM,66.0,52.0,60,30.16,10.0,SW,9.2,-,N/A,,Overcast,230,2012-12-04 17:53:00
1:53 PM,64.0,52.0,65,30.15,10.0,SSW,12.7,23.0,0.00,,Overcast,210,2012-12-04 18:53:00
2:53 PM,66.0,51.1,59,30.11,10.0,SSW,12.7,-,N/A,,Overcast,200,2012-12-04 19:53:00
3:53 PM,66.0,50.0,56,30.11,10.0,SSW,9.2,18.4,N/A,,Mostly Cloudy,200,2012-12-04 20:53:00
4:53 PM,64.9,50.0,58,30.12,10.0,SSW,12.7,18.4,N/A,,Overcast,200,2012-12-04 21:53:00
5:53 PM,64.0,51.1,63,30.14,10.0,SW,8.1,-,0.00,Rain,Light Rain,220,2012-12-04 22:53:00
6:53 PM,60.1,53.1,78,30.15,10.0,SSW,8.1,-,0.03,Rain,Light Rain,200,2012-12-04 23:53:00
7:53 PM,57.9,53.1,84,30.14,10.0,South,3.5,-,0.00,,Mostly Cloudy,190,2012-12-05 00:53:00
8:53 PM,59.0,52.0,78,30.13,10.0,SSW,5.8,-,N/A,,Overcast,210,2012-12-05 01:53:00
9:53 PM,60.1,52.0,75,30.12,10.0,SW,4.6,-,N/A,,Mostly Cloudy,220,2012-12-05 02:53:00
10:53 PM,60.1,52.0,75,30.12,10.0,WSW,4.6,-,N/A,,Overcast,240,2012-12-05 03:53:00
11:08 PM,60.8,53.6,77,30.14,10.0,WSW,6.9,-,N/A,,Overcast,250,2012-12-05 04:08:00
11:44 PM,53.6,51.8,94,30.17,6.0,North,18.4,24.2,0.02,Rain,Light Rain,350,2012-12-05 04:44:00
11:51 PM,51.8,48.2,88,30.18,10.0,North,15.0,21.9,0.02,Rain,Light Rain,360,2012-12-05 04:51:00
11:53 PM,51.1,48.9,92,30.17,10.0,North,15.0,21.9,0.02,Rain,Light Rain,360,2012-12-05 04:53:00